Regional Weather Roundup
Issued by NWS

Home | Current Version | Previous Version | Graphics & Text | Print | Product List | Glossary On
Versions: 1 2 3 4 5 6 7 8 9 10 11 12 13 14 15 16 17 18 19 20 21 22 23 24 25 26 27 28 29 30 31 32 33 34 35 36 37 38 39 40 41 42 43 44 45 46 47 48 49 50
540
ASUS45 KBOU 311707
RWRCO

WEATHER ROUNDUP FOR COLORADO
NATIONAL WEATHER SERVICE DENVER/BOULDER CO
1100 AM MDT TUE MAY 31 2016

NOTE: "FAIR" INDICATES FEW OR NO CLOUDS BELOW 12000 FEET WITH NO
SIGNIFICANT WEATHER AND/OR OBSTRUCTIONS TO VISIBILITY.

COZ001>005-013-030-031-311800-
...NORTHWEST COLORADO...

CITY           SKY/WX    TMP DP  RH WIND       PRES   REMARKS
CRAIG          FAIR      62  41  46 MISG      30.14F
HAYDEN         FAIR      57  34  41 W6        30.15F
MEEKER         FAIR      64  34  32 VRB3      30.13
MOUNT WERNER   NOT AVBL
STEAMBOAT SPGS FAIR      58  37  44 S6        30.15F
WALDEN         NOT AVBL
$$

COZ006>008-011-311800-
...WEST CENTRAL VALLEYS...

CITY           SKY/WX    TMP DP  RH WIND       PRES   REMARKS
GRAND JUNCTION FAIR      71  34  25 SE8       30.02F
MONTROSE       FAIR      67  34  29 N8        30.08F
EAGLE          SUNNY     61  30  31 CALM      30.14
RIFLE          FAIR      67  35  30 NW3       30.07F
DELTA          FAIR      70  32  24 CALM      30.05F
NUCLA          FAIR      68  32  26 W5        30.10S
$$

COZ017>023-064>068-311800-
...SOUTHWEST COLORADO...

CITY           SKY/WX    TMP DP  RH WIND       PRES   REMARKS
DURANGO        FAIR      69  24  18 VRB5      30.09S
CORTEZ         FAIR      74  30  19 SW10      30.05F
PAGOSA SPRINGS FAIR      67  23  19 W3        30.15S
TELLURIDE      FAIR      62  18  18 SW7       30.23F
WOLF CREEK PAS FAIR      43  18  36 SW12G21   30.41S
$$

COZ009-010-012-014-032>034-037-058>063-311800-
...CENTRAL COLORADO...

CITY           SKY/WX    TMP DP  RH WIND       PRES   REMARKS
ASPEN          FAIR      64  33  31 N10       30.14F
BUENA VISTA    FAIR      60  28  29 SE7       30.18F
COPPER MTN     NOT AVBL
BERTHOUD PASS  PTSUNNY   34  27  75 N14       30.38S WCI  24
COTTONWOOD PAS FAIR      59  27  29 E9        30.27S
GUNNISON       FAIR      57  30  35 N3        30.20F
KREMMLING      FAIR      55  37  50 CALM      30.17F
LEADVILLE      FAIR      53  21  28 VRB7      30.24F
MONARCH PASS   FAIR      43  19  39 W17       30.48S
SALIDA         FAIR      63  33  32 SE12G18   30.23F
SUNLIGHT       FAIR      48  34  57 CALM      30.35S
WILKERSON PASS FAIR      46  32  57 SW6       30.37R
$$

COZ069>075-311800-
...SAN LUIS VALLEY/SANGRE DE CRISTO MOUNTAINS...

CITY           SKY/WX    TMP DP  RH WIND       PRES   REMARKS
ALAMOSA        FAIR      63  32  31 S6        30.14F
LA VETA PASS   PTSUNNY   45  37  76 NE7       30.30S
SAGUACHE       FAIR      63  30  29 S5        30.17S
$$

COZ035-036-038>040-311800-
...NORTHERN COLORADO FRONT RANGE...

CITY           SKY/WX    TMP DP  RH WIND       PRES   REMARKS
DENVER INTL AP CLOUDY    53  45  74 E5        30.13F
DMNS CITY PARK   N/A     58  42  56 NE15      30.12S
AURORA         PTSUNNY   56  47  70 E5        30.13F
FRONT RANGE AP CLOUDY    50  46  87 E6        30.15F
ERIE MUNI ARPT FAIR      58  41  53 N5        30.12F
BOULDER MUN AP FAIR      59  41  51 CALM      30.11F
CENTENNIAL     PTSUNNY   56  43  61 E8        30.13F
BROOMFIELD     PTSUNNY   57  41  54 NE7       30.14
FORT COLLINS   FAIR      57  43  58 SE7       30.13F
LONGMONT       FAIR      62  42  47 E7        30.13F
$$

COZ041-046-047-076>085-087-088-311800-
...PIKES PEAK/PALMER DIVIDE AND SOUTHERN FOOTHILLS...

CITY           SKY/WX    TMP DP  RH WIND       PRES   REMARKS
COLO. SPRINGS  FAIR      60  43  53 SE10G17   30.16F
A. F. ACADEMY  PTSUNNY   61  43  51 S10G17    30.14F
SCHRIEVER AFB  NOT AVBL
ELLICOTT       NOT AVBL
FALCON         PTSUNNY   57  43  60 S8        30.18S
FORT CARSON    PTSUNNY   61  46  56 SE12      30.13F
LIMON          CLOUDY    57  46  66 VRB3      30.14F
MONUMENT HILL  FAIR      52  45  76 CALM      30.18F
TRINIDAD       CLOUDY    59  44  57 NW8       30.15F
$$

COZ042>045-048>051-090-091-311800-
...NORTHEAST COLORADO...

CITY           SKY/WX    TMP DP  RH WIND       PRES   REMARKS
GREELEY ARPT   FAIR      61  41  48 S6        30.13F
AKRON          CLOUDY    58  40  51 E8        30.13S
BURLINGTON     FAIR      63  43  48 NE12      30.11S
WRAY           NOT AVBL
STERLING       CLOUDY    59  43  55 NE5       30.11F
HOLYOKE        FAIR      61  46  59 N7        30.13R
FORT MORGAN    FAIR      59  43  54 SW3       30.13F
$$

COZ086-089-092>099-311800-
...SOUTHEAST COLORADO...

CITY           SKY/WX    TMP DP  RH WIND       PRES   REMARKS
PUEBLO         CLOUDY    63  48  58 S8        30.11F
LA JUNTA       PTSUNNY   67  49  52 NE8       30.09F
LAMAR          PTSUNNY   69  52  54 NE14      30.05S
SPRINGFIELD      N/A     68  53  58 NE7       30.06S
$$




USA.gov is the U.S. government's official web portal to all federal, state and local government web resources and services.